Weslaco, TX

11:41 PM CST on February 11, 2016 (GMT -0600)
Weslaco

Weather History for KT65 - April, 2014

Change the Weather History Date:

Tuesday, April 8, 2014

  Actual Average (KMFE) Record (KMFE)
Temperature  
Mean Temperature 68 °F 75 °F  
Max Temperature 86 °F 86 °F 103 °F (1963)
Min Temperature 52 °F 64 °F 40 °F (2007)
Degree Days  
Heating Degree Days 0 0  
Month to date heating degree days 3  
Since 1 July heating degree days 574  
Cooling Degree Days 4 11  
Month to date cooling degree days 82  
Year to date cooling degree days 459  
Growing Degree Days 18 (Base 50)    
Moisture  
Dew Point 44 °F    
Average Humidity 50    
Maximum Humidity 93    
Minimum Humidity 13    
Precipitation  
Precipitation 0.00 in 0.03 in 0.73 in (2003)
Month to date precipitation 0.24  
Year to date precipitation 3.43  
Sea Level Pressure  
Sea Level Pressure 30.16 in    
Wind  
Wind Speed 6 mph (NW)    
Max Wind Speed 20 mph    
Max Gust Speed 25 mph    
Visibility 9 miles    
Events      
T = Trace of Precipitation, MM = Missing Value Source: NWS Daily Summary

Daily Weather History Graph

Daily Weather History Graph

Search for Another Location

Airport or City:

Trip Planner

Search our weather history database for the weather conditions in past years. The results will help you decide how hot, cold, wet, or windy it might be!

Date:

Astronomy

Apr. 08, 2014 Rise Set
Actual Time 7:15 AM CDT 7:52 PM CDT
Civil Twilight 6:52 AM CDT 8:15 PM CDT
Nautical Twilight 6:24 AM CDT 8:43 PM CDT
Astronomical Twilight 5:56 AM CDT 9:10 PM CDT
Moon 2:18 PM CDT (4/8) 2:56 AM CDT (4/8)
Length of Visible Light 13h 23m
Length of Day
12h 36m
Waxing Gibbous, 63% of the Moon is Illuminated
Apr 8
Waxing Gibbous
Apr 15
Full
Apr 22
Last Quarter
Apr 29
New
May 6
First Quarter

Hourly Weather History & Observations

Time (CDT) Temp. Dew Point Humidity Pressure Visibility Wind Dir Wind Speed Gust Speed Precip Events Conditions
12:15 AM 63.0 °F 59.0 °F 87% 30.07 in 10.0 mi Calm Calm - N/A   Overcast
12:35 AM 64.4 °F 55.6 °F 73% 30.07 in 10.0 mi Calm Calm - N/A   Light Drizzle
12:55 AM 63.5 °F 57.2 °F 80% 30.09 in 10.0 mi NNW 8.1 mph - N/A   Scattered Clouds
1:15 AM 62.1 °F 57.2 °F 84% 30.09 in 10.0 mi WNW 4.6 mph - N/A   Clear
1:35 AM 61.0 °F 57.0 °F 87% 30.10 in 10.0 mi NW 4.6 mph - N/A   Clear
1:55 AM 59.9 °F 56.7 °F 89% 30.11 in 10.0 mi NNW 4.6 mph - N/A   Clear
2:15 AM 59.0 °F 55.8 °F 89% 30.12 in 10.0 mi NW 4.6 mph - N/A   Clear
2:35 AM 58.3 °F 55.6 °F 91% 30.11 in 7.0 mi WNW 3.5 mph - N/A   Clear
2:55 AM 58.1 °F 55.6 °F 91% 30.10 in 7.0 mi Calm Calm - N/A   Clear
3:15 AM 58.1 °F 55.6 °F 91% 30.11 in 7.0 mi WNW 3.5 mph - N/A   Clear
3:35 AM 57.4 °F 55.0 °F 92% 30.11 in 5.0 mi NW 3.5 mph - N/A   Clear
3:55 AM 56.7 °F 54.3 °F 92% 30.11 in 5.0 mi NW 4.6 mph - N/A   Clear
4:15 AM 55.6 °F 53.6 °F 93% 30.11 in 5.0 mi NW 4.6 mph - N/A   Clear
4:35 AM 55.0 °F 52.7 °F 92% 30.10 in 7.0 mi WNW 4.6 mph - N/A   Clear
4:55 AM 56.3 °F 54.0 °F 92% 30.12 in 10.0 mi WNW 5.8 mph - N/A   Clear
5:15 AM 55.8 °F 53.2 °F 91% 30.12 in 10.0 mi WNW 5.8 mph - N/A   Clear
5:35 AM 55.8 °F 53.1 °F 91% 30.13 in 7.0 mi WNW 4.6 mph - N/A   Clear
5:55 AM 55.4 °F 52.7 °F 91% 30.13 in 7.0 mi NW 3.5 mph - N/A   Clear
6:15 AM 55.4 °F 52.7 °F 91% 30.14 in 7.0 mi Calm Calm - N/A   Clear
6:35 AM 54.7 °F 52.2 °F 91% 30.15 in 7.0 mi NW 4.6 mph - N/A   Clear
6:55 AM 52.9 °F 50.2 °F 91% 30.16 in 5.0 mi WNW 4.6 mph - N/A   Clear
7:15 AM 54.5 °F 52.2 °F 92% 30.16 in 7.0 mi West 6.9 mph - N/A   Clear
7:35 AM 56.1 °F 53.6 °F 91% 30.17 in 5.0 mi West 6.9 mph - N/A   Clear
7:55 AM 57.7 °F 54.3 °F 88% 30.18 in 7.0 mi West 5.8 mph - N/A   Clear
8:15 AM 59.4 °F 55.4 °F 87% 30.19 in 7.0 mi West 5.8 mph - N/A   Clear
8:35 AM 61.2 °F 55.8 °F 82% 30.20 in 5.0 mi West 5.8 mph - N/A   Haze
8:55 AM 63.3 °F 56.1 °F 77% 30.21 in 5.0 mi North - - N/A   Haze
9:15 AM 65.8 °F 56.1 °F 71% 30.21 in 7.0 mi West 10.4 mph - N/A   Clear
9:35 AM 68.2 °F 55.0 °F 63% 30.21 in 10.0 mi West 8.1 mph - N/A   Clear
9:55 AM 70.2 °F 54.9 °F 58% 30.22 in 10.0 mi West 8.1 mph - N/A   Clear
10:15 AM 72.5 °F 53.2 °F 51% 30.22 in 7.0 mi West 6.9 mph - N/A   Clear
10:35 AM 74.3 °F 49.5 °F 41% 30.22 in 10.0 mi West 11.5 mph - N/A   Clear
10:55 AM 75.6 °F 50.9 °F 42% 30.22 in 10.0 mi West 10.4 mph - N/A   Clear
11:15 AM 77.0 °F 50.2 °F 39% 30.23 in 7.0 mi WNW 12.7 mph 18.4 mph N/A   Clear
11:35 AM 78.3 °F 48.9 °F 36% 30.23 in 7.0 mi NW 15.0 mph 19.6 mph N/A   Clear
11:55 AM 80.1 °F 46.0 °F 30% 30.23 in 5.0 mi NNW 11.5 mph 23.0 mph N/A   Haze
12:15 PM 80.8 °F 44.2 °F 27% 30.22 in 10.0 mi NW 13.8 mph 21.9 mph N/A   Clear
12:35 PM 81.3 °F 41.2 °F 24% 30.21 in 10.0 mi NW 17.3 mph 21.9 mph N/A   Clear
12:55 PM 82.9 °F 38.7 °F 21% 30.20 in 10.0 mi NW 13.8 mph 21.9 mph N/A   Clear
1:15 PM 82.9 °F 32.7 °F 16% 30.20 in 10.0 mi NNW 17.3 mph 25.3 mph N/A   Clear
1:35 PM 84.0 °F 33.3 °F 16% 30.19 in 10.0 mi North 11.5 mph 21.9 mph N/A   Clear
1:55 PM 84.4 °F 32.2 °F 15% 30.18 in 10.0 mi NNW 17.3 mph 24.2 mph N/A   Clear
2:15 PM 84.2 °F 29.8 °F 14% 30.17 in 10.0 mi NNW 13.8 mph 24.2 mph N/A   Clear
2:35 PM 84.6 °F 28.8 °F 13% 30.17 in 10.0 mi North 16.1 mph 23.0 mph N/A   Clear
2:55 PM 85.1 °F 30.6 °F 14% 30.16 in 10.0 mi NW 13.8 mph 21.9 mph N/A   Clear
3:15 PM 85.5 °F 29.1 °F 13% 30.15 in 10.0 mi NNW 19.6 mph 23.0 mph N/A   Clear
3:35 PM 85.6 °F 29.1 °F 13% 30.14 in 10.0 mi NNW 15.0 mph 20.7 mph N/A   Clear
3:55 PM 85.8 °F 30.0 °F 13% 30.14 in 10.0 mi NNW 11.5 mph 24.2 mph N/A   Clear
4:15 PM 85.3 °F 29.8 °F 14% 30.13 in 10.0 mi NNW 17.3 mph 20.7 mph N/A   Clear
4:35 PM 85.5 °F 29.1 °F 13% 30.13 in 10.0 mi NNW 13.8 mph 21.9 mph N/A   Clear
4:55 PM 85.6 °F 29.1 °F 13% 30.12 in 10.0 mi NW 12.7 mph 19.6 mph N/A   Clear
5:15 PM 85.5 °F 28.8 °F 13% 30.12 in 10.0 mi NW 16.1 mph 24.2 mph N/A   Clear
5:35 PM 85.6 °F 28.8 °F 13% 30.11 in 10.0 mi North 11.5 mph 20.7 mph N/A   Clear
5:55 PM 85.1 °F 28.6 °F 13% 30.11 in 10.0 mi NNW 16.1 mph 20.7 mph N/A   Clear
6:15 PM 84.4 °F 28.9 °F 13% 30.11 in 10.0 mi NNW 11.5 mph - N/A   Clear
6:35 PM 83.7 °F 28.0 °F 13% 30.12 in 10.0 mi North 11.5 mph 17.3 mph N/A   Clear
6:55 PM 82.9 °F 27.3 °F 13% 30.12 in 10.0 mi North 8.1 mph - N/A   Clear
7:15 PM 81.7 °F 28.0 °F 14% 30.13 in 10.0 mi North 8.1 mph - N/A   Clear
7:35 PM 79.2 °F 28.9 °F 16% 30.13 in 10.0 mi North 4.6 mph - N/A   Clear
7:55 PM 77.2 °F 30.2 °F 18% 30.14 in 10.0 mi North 4.6 mph - N/A   Clear
8:15 PM 75.4 °F 31.5 °F 20% 30.15 in 10.0 mi Calm Calm - N/A   Clear
8:35 PM 70.9 °F 34.0 °F 26% 30.15 in 10.0 mi Calm Calm - N/A   Clear
8:55 PM 70.0 °F 32.2 °F 25% 30.16 in 10.0 mi Calm Calm - N/A   Clear
9:15 PM 67.6 °F 33.1 °F 28% 30.17 in 10.0 mi Calm Calm - N/A   Clear
9:35 PM 65.8 °F 34.9 °F 32% 30.18 in 10.0 mi Calm Calm - N/A   Clear
9:55 PM 65.1 °F 36.3 °F 34% 30.18 in 5.0 mi Calm Calm - N/A   Haze
10:15 PM 68.0 °F 36.3 °F 31% 30.20 in 7.0 mi Calm Calm - N/A   Clear
10:35 PM 64.4 °F 42.3 °F 44% 30.21 in 10.0 mi SE 4.6 mph - N/A   Clear
10:55 PM 63.7 °F 44.8 °F 50% 30.22 in 10.0 mi SSE 6.9 mph - N/A   Clear
11:15 PM 63.3 °F 45.0 °F 51% 30.22 in 10.0 mi SE 4.6 mph - N/A   Clear
11:35 PM 62.6 °F 44.6 °F 52% 30.22 in 10.0 mi SSE 4.6 mph - N/A   Clear
11:55 PM 60.4 °F 45.0 °F 57% 30.22 in 10.0 mi South 5.8 mph - N/A   Clear